DIY-1 (ARDUIQUBE) (47963 NORAD) Tracking and Keplerian Element Data

This shows tracking and keplerian element data for the satellite.

Feedback or suggestion? Click here.




ElementValue
Catalog47963
NameDIY-1 (ARDUIQUBE)
Epoch Orbit9062
Epoch Day324.71976273
Epoch Year2022
RAAN224.6805
Inclination97.518
Eccentricity0.0013427
Argument of Perigee325.2057
Mean Anonmoly34.8298
Mean Motion15.19799566
Decay Rate0.00021536
L11 47963U 21022AH 22324.71976273 .00021536 00000+0 10045-2 0 9999
L22 47963 97.5180 224.6805 0013427 325.2057 34.8298 15.19799566 90628



Live tracking and technical data element details for DIY-1 (ARDUIQUBE) (NORAD 47963). DIY-1 (ARDUIQUBE) can be tracked NOW for your location showing map with azimuth and elevation plus other details from your city location.







IsCatalogInMostPopularTable: catalog: 47963, numindb: 102
Update: records affected: 1



GetName: 47963 DIY-1 (ARDUIQUBE)

Hit Count: updated at: Fri, 02 Dec 2022 12:34:49 GMT